Вернуться в каталог

STARLINK-36078

АктивенСвязьVLEO
NORAD 67050·PAYLOAD·🇺🇸 United States

Запущен Dec 11, 2025 с Cape Canaveral Space Force Station

Loading…

Ближайшие Пролёты (ближайшие 24 часа)

TLE

СвежийSource: CelesTrak SupGP

Эпоха: Sep 14, 2026, 21:08 UTC

1 67050C 25294W   26257.88104167  .00033964  00000+0  12311-2 0  2578
2 67050  43.0028  49.3854 0001407 268.9452 185.2721 15.27536845    11

Отслеживайте STARLINK-36078 в реальном времени с AllMySat

Download on the App Store